Terminal Aerodrome Forecast
Issued by NWS Brownsville, TX

Home | Current Version | Previous Version | Text Only | Print | Product List | Glossary On
Versions: 1 2 3 4 5 6 7 8 9 10 11 12 13 14 15 16 17
000
FTUS44 KBRO 281132 CCA
TAFMFE
TAF COR
KMFE 281132Z 2812/2912 14012KT 6SM HZ SCT012 BKN018
     FM281400 15018G25KT P6SM SKC
     FM290300 14012KT P6SM SCT020=

USA.gov is the U.S. government's official web portal to all federal, state and local government web resources and services.